sat.trackr.live / text

‹ back to catalog

STARLINK-35963

NORAD 66585 · 2025-268AE

PAYLOAD ACTIVE UNKNOWN

§ Identity

Operator
Country
US
Launch date
2025-11-21
Launch site
AFETR
Launch vehicle
Mass (kg)
RCS (m²)

Purposes: comms

External: N2YO · Heavens-Above · Gunter

§ Orbital elements

Epoch: 2026-09-20T12:40:39.716544Z

Period
94.27 min
Inclination
43.0011°
Eccentricity
0.0001288
Mean motion
15.27595912 rev/d
Perigee alt
482.1 km
Apogee alt
483.9 km
Semi-major
6,861.1 km
B*
5.3123e-4
RAAN
327.0785°
Arg perigee
273.6585°
Mean anomaly
86.4120°
Rev number
4,775

§ Raw data

STARLINK-359631 66585U 25268AE  26263.52823746  .00014392  00000+0  53123-3 0  99942 66585  43.0011 327.0785 0001288 273.6585  86.4120 15.27595912 47758

JSON: /api/v1/satellites/66585 · /tle

For live sub-satellite position, see the globe view (requires WebGL).

§ Visibility from observer

Set your observer location to see the next 7 days of passes ≥ 10°. The values pass through the URL so the page stays shareable.

No JS? Fill the form by hand. The geolocation button needs JavaScript.